Location: Winterland
(47.1574°N, 55.3067°W)
Time: 16:03:50
(UTC+00:00)

Tiangong - Visible Passes

Search period start: 16 August 2022 00:00
Search period end: 26 August 2022 00:00
Orbit: 381 x 385 km, 41.5° (Epoch: 16 August)

Date Brightness Start Highest point End Pass type
(mag) Time Alt. Az. Time Alt. Az. Time Alt. Az.
16 Aug 0.0 00:18:16 10° SSW 00:19:07 13° S 00:19:07 13° S visible
17 Aug 0.3 00:53:51 10° SW 00:54:29 14° SW 00:54:29 14° SW visible
17 Aug -0.6 23:54:02 10° SW 23:56:28 20° SSE 23:57:24 18° SE visible
19 Aug -0.9 00:29:56 10° WSW 00:32:17 27° S 00:32:17 27° S visible
19 Aug -0.8 23:29:55 10° SW 23:32:34 25° S 23:34:51 12° ESE visible
20 Aug 0.3 01:06:12 10° WSW 01:07:01 15° WSW 01:07:01 15° WSW visible
21 Aug -1.0 00:05:58 10° WSW 00:08:45 28° S 00:09:28 26° SSE visible
22 Aug -0.2 00:42:19 10° WSW 00:44:00 20° SW 00:44:00 20° SW visible
22 Aug -0.8 23:41:56 10° WSW 23:44:40 27° S 23:46:18 17° SE visible
24 Aug -0.2 00:18:25 10° WSW 00:20:40 18° SSW 00:20:44 18° SSW visible
24 Aug -0.5 23:17:49 10° WSW 23:20:23 23° SSW 23:22:57 10° SE visible
25 Aug 0.2 23:54:38 10° SW 23:56:15 13° SSW 23:57:21 12° S visible
